Location: Cruquius
(52.3348°N, 4.6319°E)
Time: 08:08:54
(UTC+00:00)

Cosmos 2084 - Pass Details

Date: 12 May 2021
Orbit: 542 x 639 km, 62.8° (Epoch: 16 June)

Event Time Altitude Azimuth Distance (km) Brightness Sun altitude
Rises 20:09:26 0° 206° (SSW) 2,712 6.7 -6.1°
Reaches altitude 10° 20:11:40 10° 200° (SSW) 1,832 5.8 -6.4°
Maximum altitude 20:15:36 45° 128° (SE) 778 3.7 -6.8°
Drops below altitude 10° 20:19:40 10° 56° (NE) 1,894 5.9 -7.3°
Sets 20:22:00 0° 50° (NE) 2,815 6.9 -7.6°
